Time,TemperatureF,DewpointF,PressureIn,WindDirection,WindDirectionDegrees,WindSpeedMPH,WindSpeedGustMPH,Humidity,HourlyPrecipIn,Conditions,Clouds,dailyrainin,SoftwareType,DateUTC
2015-07-05 00:03:00,68.0,67.0,30.08,ESE,123,0.0,0.0,97,-99.99,,,-99.99,,2015-07-05 04:03:00,
2015-07-05 00:13:00,68.0,67.0,30.08,ESE,123,0.0,0.0,97,-99.99,,,-99.99,,2015-07-05 04:13:00,
2015-07-05 00:23:00,67.0,66.0,30.08,South,176,0.0,0.0,97,-99.99,,,-99.99,,2015-07-05 04:23:00,
2015-07-05 00:33:00,67.0,66.0,30.08,South,176,0.0,0.0,97,-99.99,,,-99.99,,2015-07-05 04:33:00,
2015-07-05 00:44:00,67.0,66.0,30.08,South,176,0.0,0.0,97,-99.99,,,-99.99,,2015-07-05 04:44:00,
2015-07-05 00:54:00,66.0,65.0,30.08,South,176,0.0,0.0,97,-99.99,,,-99.99,,2015-07-05 04:54:00,
2015-07-05 01:03:00,66.0,65.0,30.08,South,176,0.0,0.0,98,-99.99,,,-99.99,,2015-07-05 05:03:00,
2015-07-05 01:13:00,66.0,65.0,30.08,South,176,0.0,0.0,98,-99.99,,,-99.99,,2015-07-05 05:13:00,
2015-07-05 01:23:00,66.0,65.0,30.09,South,176,0.0,0.0,98,-99.99,,,-99.99,,2015-07-05 05:23:00,
2015-07-05 01:33:00,66.0,65.0,30.09,South,176,0.0,0.0,98,-99.99,,,-99.99,,2015-07-05 05:33:00,
2015-07-05 01:44:00,66.0,65.0,30.09,South,176,0.0,0.0,98,-99.99,,,-99.99,,2015-07-05 05:44:00,
2015-07-05 01:54:00,66.0,65.0,30.09,South,176,0.0,0.0,98,-99.99,,,-99.99,,2015-07-05 05:54:00,
2015-07-05 02:03:00,66.0,65.0,30.08,South,176,0.0,0.0,98,-99.99,,,-99.99,,2015-07-05 06:03:00,
2015-07-05 02:13:00,66.0,65.0,30.08,South,176,0.0,0.0,98,-99.99,,,-99.99,,2015-07-05 06:13:00,
2015-07-05 02:23:00,66.0,65.0,30.08,South,176,0.0,0.0,98,-99.99,,,-99.99,,2015-07-05 06:23:00,
2015-07-05 02:33:00,66.0,65.0,30.09,South,176,0.0,0.0,98,-99.99,,,-99.99,,2015-07-05 06:33:00,
2015-07-05 02:44:00,66.0,65.0,30.09,South,176,0.0,0.0,98,-99.99,,,-99.99,,2015-07-05 06:44:00,
2015-07-05 02:53:00,65.0,64.0,30.09,South,176,0.0,0.0,98,-99.99,,,-99.99,,2015-07-05 06:53:00,
2015-07-05 03:03:00,65.0,64.0,30.09,South,176,0.0,0.0,98,-99.99,,,-99.99,,2015-07-05 07:03:00,
2015-07-05 03:13:00,65.0,64.0,30.09,South,176,0.0,0.0,98,-99.99,,,-99.99,,2015-07-05 07:13:00,
2015-07-05 03:23:00,65.0,64.0,30.09,South,176,0.0,0.0,98,-99.99,,,-99.99,,2015-07-05 07:23:00,
2015-07-05 03:33:00,64.0,63.0,30.09,SE,131,0.0,1.0,98,-99.99,,,-99.99,,2015-07-05 07:33:00,
2015-07-05 03:44:00,64.0,63.0,30.09,SE,131,0.0,1.0,98,-99.99,,,-99.99,,2015-07-05 07:44:00,
2015-07-05 03:53:00,64.0,63.0,30.10,SE,131,0.0,0.0,98,-99.99,,,-99.99,,2015-07-05 07:53:00,
2015-07-05 04:03:00,64.0,63.0,30.10,SE,131,0.0,0.0,98,-99.99,,,-99.99,,2015-07-05 08:03:00,
2015-07-05 04:13:00,64.0,63.0,30.10,SE,131,0.0,0.0,98,-99.99,,,-99.99,,2015-07-05 08:13:00,
2015-07-05 04:23:00,64.0,63.0,30.10,SE,131,0.0,0.0,98,-99.99,,,-99.99,,2015-07-05 08:23:00,
2015-07-05 04:33:00,64.0,63.0,30.10,SE,133,0.0,0.0,98,-99.99,,,-99.99,,2015-07-05 08:33:00,
2015-07-05 04:43:00,64.0,63.0,30.10,SE,133,0.0,0.0,98,-99.99,,,-99.99,,2015-07-05 08:43:00,
2015-07-05 04:53:00,64.0,63.0,30.10,SE,133,0.0,0.0,98,-99.99,,,-99.99,,2015-07-05 08:53:00,
2015-07-05 05:03:00,64.0,63.0,30.10,SE,133,0.0,0.0,98,-99.99,,,-99.99,,2015-07-05 09:03:00,
2015-07-05 05:13:00,64.0,63.0,30.10,SE,133,0.0,0.0,98,-99.99,,,-99.99,,2015-07-05 09:13:00,
2015-07-05 05:23:00,64.0,63.0,30.11,SE,133,0.0,0.0,98,-99.99,,,-99.99,,2015-07-05 09:23:00,
2015-07-05 05:34:00,64.0,64.0,30.11,SE,133,0.0,0.0,99,-99.99,,,-99.99,,2015-07-05 09:34:00,
2015-07-05 05:43:00,64.0,64.0,30.11,SE,133,0.0,0.0,99,-99.99,,,-99.99,,2015-07-05 09:43:00,
2015-07-05 05:54:00,64.0,64.0,30.11,SE,131,0.0,1.0,99,-99.99,,,-99.99,,2015-07-05 09:54:00,
2015-07-05 06:03:00,64.0,64.0,30.12,East,101,0.0,1.0,99,-99.99,,,-99.99,,2015-07-05 10:03:00,
2015-07-05 06:13:00,64.0,64.0,30.12,East,101,0.0,1.0,99,-99.99,,,-99.99,,2015-07-05 10:13:00,
2015-07-05 06:23:00,64.0,64.0,30.13,ENE,65,0.0,0.0,99,-99.99,,,-99.99,,2015-07-05 10:23:00,
2015-07-05 06:33:00,64.0,64.0,30.13,ENE,65,0.0,0.0,99,-99.99,,,-99.99,,2015-07-05 10:33:00,
2015-07-05 06:43:00,64.0,64.0,30.13,ENE,65,0.0,0.0,99,-99.99,,,-99.99,,2015-07-05 10:43:00,
2015-07-05 06:54:00,64.0,64.0,30.14,ENE,65,0.0,0.0,99,-99.99,,,-99.99,,2015-07-05 10:54:00,
2015-07-05 07:03:00,64.0,64.0,30.15,East,98,0.0,0.0,99,-99.99,,,-99.99,,2015-07-05 11:03:00,
2015-07-05 07:13:00,64.0,64.0,30.15,East,98,0.0,0.0,99,-99.99,,,-99.99,,2015-07-05 11:13:00,
2015-07-05 07:23:00,64.0,64.0,30.15,ENE,62,0.0,0.0,99,-99.99,,,-99.99,,2015-07-05 11:23:00,
2015-07-05 07:33:00,64.0,64.0,30.15,ESE,117,0.0,0.0,99,-99.99,,,-99.99,,2015-07-05 11:33:00,
2015-07-05 07:44:00,64.0,64.0,30.15,ESE,117,0.0,0.0,99,-99.99,,,-99.99,,2015-07-05 11:44:00,
2015-07-05 07:54:00,65.0,65.0,30.16,ESE,107,0.0,0.0,99,-99.99,,,-99.99,,2015-07-05 11:54:00,
2015-07-05 08:03:00,65.0,65.0,30.16,ESE,110,0.0,0.0,99,-99.99,,,-99.99,,2015-07-05 12:03:00,
2015-07-05 08:13:00,65.0,65.0,30.16,ESE,110,0.0,0.0,99,-99.99,,,-99.99,,2015-07-05 12:13:00,
2015-07-05 08:23:00,65.0,65.0,30.17,SSE,163,0.0,0.0,99,-99.99,,,-99.99,,2015-07-05 12:23:00,
2015-07-05 08:33:00,65.0,65.0,30.17,SSE,163,0.0,0.0,99,-99.99,,,-99.99,,2015-07-05 12:33:00,
2015-07-05 08:44:00,65.0,65.0,30.17,SSE,163,0.0,0.0,99,-99.99,,,-99.99,,2015-07-05 12:44:00,
2015-07-05 08:54:00,66.0,66.0,30.17,SE,135,0.0,0.0,99,-99.99,,,-99.99,,2015-07-05 12:54:00,
2015-07-05 09:03:00,66.0,66.0,30.18,ESE,105,0.0,0.0,99,-99.99,,,-99.99,,2015-07-05 13:03:00,
2015-07-05 09:13:00,66.0,66.0,30.18,ESE,105,0.0,0.0,99,-99.99,,,-99.99,,2015-07-05 13:13:00,
2015-07-05 09:24:00,66.0,66.0,30.18,ESE,116,0.0,2.0,99,-99.99,,,-99.99,,2015-07-05 13:24:00,
2015-07-05 09:33:00,66.0,66.0,30.18,ESE,122,0.0,1.0,99,-99.99,,,-99.99,,2015-07-05 13:33:00,
2015-07-05 09:54:00,67.0,67.0,30.18,ESE,120,0.0,0.0,99,-99.99,,,-99.99,,2015-07-05 13:54:00,
2015-07-05 10:13:00,67.0,67.0,30.18,SE,126,0.0,0.0,99,-99.99,,,-99.99,,2015-07-05 14:13:00,
2015-07-05 10:23:00,68.0,67.0,30.18,NNE,24,0.0,2.0,98,-99.99,,,-99.99,,2015-07-05 14:23:00,
2015-07-05 10:34:00,68.0,67.0,30.19,ESE,105,2.0,4.0,98,-99.99,,,-99.99,,2015-07-05 14:34:00,
2015-07-05 10:44:00,68.0,67.0,30.19,ESE,105,2.0,4.0,98,-99.99,,,-99.99,,2015-07-05 14:44:00,
2015-07-05 10:54:00,69.0,68.0,30.18,NE,50,1.0,3.0,96,-99.99,,,-99.99,,2015-07-05 14:54:00,
2015-07-05 11:03:00,70.0,68.0,30.18,ENE,71,0.0,3.0,95,-99.99,,,-99.99,,2015-07-05 15:03:00,
2015-07-05 11:13:00,70.0,68.0,30.18,ENE,71,0.0,3.0,95,-99.99,,,-99.99,,2015-07-05 15:13:00,
2015-07-05 11:23:00,72.0,70.0,30.18,ESE,117,1.0,4.0,92,-99.99,,,-99.99,,2015-07-05 15:23:00,
2015-07-05 11:33:00,72.0,69.0,30.18,SSE,167,0.0,1.0,91,-99.99,,,-99.99,,2015-07-05 15:33:00,
2015-07-05 11:54:00,73.0,69.0,30.18,East,89,0.0,2.0,88,-99.99,,,-99.99,,2015-07-05 15:54:00,
2015-07-05 12:03:00,74.0,70.0,30.18,SSE,166,0.0,2.0,86,-99.99,,,-99.99,,2015-07-05 16:03:00,
2015-07-05 12:13:00,74.0,70.0,30.18,SSE,166,0.0,2.0,86,-99.99,,,-99.99,,2015-07-05 16:13:00,
2015-07-05 12:24:00,75.0,69.0,30.18,SSW,200,2.0,4.0,83,-99.99,,,-99.99,,2015-07-05 16:24:00,
2015-07-05 12:34:00,76.0,72.0,30.18,NE,39,0.0,3.0,86,-99.99,,,-99.99,,2015-07-05 16:34:00,
2015-07-05 12:44:00,76.0,72.0,30.18,NE,39,0.0,3.0,86,-99.99,,,-99.99,,2015-07-05 16:44:00,
2015-07-05 12:54:00,76.0,70.0,30.18,SSW,197,1.0,3.0,83,-99.99,,,-99.99,,2015-07-05 16:54:00,
2015-07-05 13:04:00,77.0,71.0,30.18,SE,126,2.0,4.0,81,-99.99,,,-99.99,,2015-07-05 17:04:00,
2015-07-05 13:13:00,77.0,71.0,30.18,SE,126,2.0,4.0,81,-99.99,,,-99.99,,2015-07-05 17:13:00,
2015-07-05 13:24:00,78.0,71.0,30.19,SE,131,1.0,4.0,80,-99.99,,,-99.99,,2015-07-05 17:24:00,
2015-07-05 13:34:00,79.0,72.0,30.19,SSW,197,1.0,3.0,78,-99.99,,,-99.99,,2015-07-05 17:34:00,
2015-07-05 13:44:00,79.0,72.0,30.19,SSW,197,1.0,3.0,78,-99.99,,,-99.99,,2015-07-05 17:44:00,
2015-07-05 13:54:00,79.0,71.0,30.18,SSE,156,1.0,8.0,77,-99.99,,,-99.99,,2015-07-05 17:54:00,
2015-07-05 14:04:00,79.0,71.0,30.18,SSE,161,1.0,6.0,77,-99.99,,,-99.99,,2015-07-05 18:04:00,
2015-07-05 14:13:00,79.0,71.0,30.18,SSE,161,1.0,6.0,77,-99.99,,,-99.99,,2015-07-05 18:13:00,
2015-07-05 14:23:00,79.0,72.0,30.17,SE,145,1.0,4.0,79,-99.99,,,-99.99,,2015-07-05 18:23:00,
2015-07-05 14:34:00,79.0,72.0,30.17,ESE,115,0.0,6.0,78,-99.99,,,-99.99,,2015-07-05 18:34:00,
2015-07-05 14:44:00,79.0,72.0,30.17,ESE,115,0.0,6.0,78,-99.99,,,-99.99,,2015-07-05 18:44:00,
2015-07-05 14:54:00,80.0,72.0,30.16,SSW,195,0.0,4.0,76,-99.99,,,-99.99,,2015-07-05 18:54:00,
2015-07-05 15:04:00,81.0,72.0,30.15,SSE,163,1.0,4.0,74,-99.99,,,-99.99,,2015-07-05 19:04:00,
2015-07-05 15:24:00,81.0,70.0,30.15,ESE,123,1.0,4.0,70,-99.99,,,-99.99,,2015-07-05 19:24:00,
2015-07-05 15:34:00,81.0,71.0,30.15,SE,136,0.0,8.0,72,-99.99,,,-99.99,,2015-07-05 19:34:00,
2015-07-05 15:44:00,81.0,71.0,30.15,SE,136,0.0,8.0,72,-99.99,,,-99.99,,2015-07-05 19:44:00,
2015-07-05 15:54:00,80.0,72.0,30.15,SSE,147,0.0,3.0,76,-99.99,,,-99.99,,2015-07-05 19:54:00,
2015-07-05 16:03:00,80.0,72.0,30.14,SSE,160,0.0,2.0,78,-99.99,,,-99.99,,2015-07-05 20:03:00,
2015-07-05 16:13:00,80.0,72.0,30.14,SSE,160,0.0,2.0,78,-99.99,,,-99.99,,2015-07-05 20:13:00,
2015-07-05 16:23:00,80.0,72.0,30.14,SW,232,0.0,1.0,77,-99.99,,,-99.99,,2015-07-05 20:23:00,
2015-07-05 16:33:00,81.0,72.0,30.14,SSW,197,1.0,3.0,75,-99.99,,,-99.99,,2015-07-05 20:33:00,
2015-07-05 16:44:00,81.0,72.0,30.14,SSW,197,1.0,3.0,75,-99.99,,,-99.99,,2015-07-05 20:44:00,
2015-07-05 17:03:00,82.0,72.0,30.14,South,177,1.0,4.0,73,-99.99,,,-99.99,,2015-07-05 21:03:00,
2015-07-05 17:13:00,82.0,72.0,30.14,South,177,1.0,4.0,73,-99.99,,,-99.99,,2015-07-05 21:13:00,
2015-07-05 17:23:00,82.0,73.0,30.13,South,173,0.0,2.0,75,-99.99,,,-99.99,,2015-07-05 21:23:00,
2015-07-05 17:34:00,83.0,73.0,30.13,SW,225,1.0,4.0,73,-99.99,,,-99.99,,2015-07-05 21:34:00,
2015-07-05 17:44:00,83.0,73.0,30.13,SW,225,1.0,4.0,73,-99.99,,,-99.99,,2015-07-05 21:44:00,
2015-07-05 17:54:00,82.0,73.0,30.12,SSE,150,0.0,1.0,75,-99.99,,,-99.99,,2015-07-05 21:54:00,
2015-07-05 18:04:00,82.0,73.0,30.12,SSE,150,0.0,1.0,75,-99.99,,,-99.99,,2015-07-05 22:04:00,
2015-07-05 18:13:00,82.0,74.0,30.13,SSE,160,0.0,1.0,77,-99.99,,,-99.99,,2015-07-05 22:13:00,
2015-07-05 18:23:00,81.0,73.0,30.12,SSE,158,0.0,1.0,77,-99.99,,,-99.99,,2015-07-05 22:23:00,
2015-07-05 18:34:00,81.0,73.0,30.12,SSE,158,0.0,1.0,77,-99.99,,,-99.99,,2015-07-05 22:34:00,
2015-07-05 18:44:00,80.0,73.0,30.12,SE,142,0.0,1.0,80,-99.99,,,-99.99,,2015-07-05 22:44:00,
2015-07-05 18:54:00,81.0,74.0,30.12,SSE,160,0.0,0.0,80,-99.99,,,-99.99,,2015-07-05 22:54:00,
2015-07-05 19:04:00,81.0,74.0,30.12,SSE,160,0.0,0.0,80,-99.99,,,-99.99,,2015-07-05 23:04:00,
2015-07-05 19:13:00,80.0,73.0,30.12,SSE,154,0.0,2.0,80,-99.99,,,-99.99,,2015-07-05 23:13:00,
2015-07-05 19:23:00,80.0,72.0,30.12,ESE,113,0.0,0.0,77,-99.99,,,-99.99,,2015-07-05 23:23:00,
2015-07-05 19:34:00,80.0,72.0,30.12,ESE,113,0.0,0.0,77,-99.99,,,-99.99,,2015-07-05 23:34:00,
2015-07-05 19:44:00,80.0,73.0,30.12,East,86,0.0,1.0,80,-99.99,,,-99.99,,2015-07-05 23:44:00,
2015-07-05 20:03:00,79.0,73.0,30.14,East,86,0.0,0.0,82,-99.99,,,-99.99,,2015-07-06 00:03:00,
2015-07-05 20:13:00,78.0,73.0,30.14,East,86,0.0,0.0,84,-99.99,,,-99.99,,2015-07-06 00:13:00,
2015-07-05 20:23:00,77.0,73.0,30.14,East,86,0.0,0.0,87,-99.99,,,-99.99,,2015-07-06 00:23:00,
2015-07-05 20:34:00,77.0,73.0,30.14,East,86,0.0,0.0,87,-99.99,,,-99.99,,2015-07-06 00:34:00,
2015-07-05 20:44:00,76.0,73.0,30.14,East,86,0.0,0.0,89,-99.99,,,-99.99,,2015-07-06 00:44:00,
2015-07-05 21:03:00,76.0,73.0,30.14,East,86,0.0,0.0,91,-99.99,,,-99.99,,2015-07-06 01:03:00,
2015-07-05 21:13:00,75.0,73.0,30.14,East,86,0.0,0.0,92,-99.99,,,-99.99,,2015-07-06 01:13:00,
2015-07-05 21:23:00,74.0,72.0,30.14,East,86,0.0,0.0,92,-99.99,,,-99.99,,2015-07-06 01:23:00,
2015-07-05 21:33:00,74.0,72.0,30.14,East,86,0.0,0.0,92,-99.99,,,-99.99,,2015-07-06 01:33:00,
2015-07-05 21:43:00,73.0,71.0,30.14,East,86,0.0,0.0,93,-99.99,,,-99.99,,2015-07-06 01:43:00,
2015-07-05 21:53:00,73.0,71.0,30.14,East,86,0.0,0.0,94,-99.99,,,-99.99,,2015-07-06 01:53:00,
2015-07-05 22:03:00,73.0,71.0,30.14,East,86,0.0,0.0,94,-99.99,,,-99.99,,2015-07-06 02:03:00,
2015-07-05 22:13:00,73.0,71.0,30.15,East,86,0.0,0.0,95,-99.99,,,-99.99,,2015-07-06 02:13:00,
2015-07-05 22:23:00,73.0,71.0,30.15,East,86,0.0,0.0,95,-99.99,,,-99.99,,2015-07-06 02:23:00,
2015-07-05 22:33:00,73.0,71.0,30.15,East,86,0.0,0.0,95,-99.99,,,-99.99,,2015-07-06 02:33:00,
2015-07-05 22:44:00,72.0,70.0,30.15,East,86,0.0,0.0,95,-99.99,,,-99.99,,2015-07-06 02:44:00,
2015-07-05 23:03:00,72.0,70.0,30.15,East,86,0.0,0.0,95,-99.99,,,-99.99,,2015-07-06 03:03:00,